Location: Unspecified
(0.0000°N, 0.0000°E)
Time: 11:21:52
(UTC+00:00)

Altair - Pass Details

Date: 19 November 2019
Orbit: 1502 x 1682 km, 47.2° (Epoch: 07 December)

Event Time Altitude Azimuth Distance (km) Brightness Sun altitude
Rises 23:13:16 0° 216° (SW) 4,810 10.4 -68.9°
Enters shadow 23:14:51 - 215° (SW) 4,304 10.1 -69.0°
Reaches altitude 10° 23:16:26 10° 214° (SSW) 3,799 - -69.2°
Maximum altitude 23:26:01 74° 130° (SE) 1,598 - -69.9°
Drops below altitude 10° 23:35:14 10° 46° (NE) 3,666 - -70.3°
Sets 23:38:14 0° 44° (NE) 4,634 - -70.4°
